Wetbulb
46.77 39.93 37.61 41.38 43.27 43.61 43.41 41.80 41.24 43.44 46.30 44.52 43.67 43.75 45.47 47.51 46.74 47.28 48.17 49.45 49.83 51.14 53.28 53.69 57.09 57.72 58.28 59.25 59.63 60.99 65.58 69.02 71.53 72.39 71.93 71.54 71.92 71.66 71.01 71.74 71.84 71.50 72.92 71.95
43.14 38.34 44.71 47.35 46.90 45.18 43.86 41.39 40.52 44.16 47.12 43.96 42.86 42.81 45.63 46.79 46.82 47.32 48.12 48.82 49.82 50.44 51.87 53.93 54.48 56.03 56.95 58.79 60.72 60.93 61.48 64.71 70.31 70.50 71.58 71.72 70.93 71.44 71.26 71.55 72.32 72.68 73.42 73.38
40.78 44.45 48.53 46.66 45.00 43.81 42.55 40.85 40.92 41.38 45.13 44.85 42.42 39.82 43.20 46.86 47.66 48.75 48.97 49.18 50.54 50.68 50.89 51.83 54.17 54.93 56.76 57.43 58.42 59.87 60.70 61.46 64.14 66.88 68.82 69.62 70.42 70.59 69.95 70.68 71.90 72.22 72.52 74.06
43.70 47.69 47.08 45.64 43.59 43.38 38.35 44.75 44.67 43.60 40.24 33.63 41.97 31.66 40.28 43.69 44.85 46.68 48.17 47.89 49.47 50.60 52.16 52.98 52.85 54.44 55.15 55.80 56.81 59.73 62.36 61.99 63.06 63.38 64.22 64.55 65.80 66.55 68.03 68.05 70.24 70.94 71.67 72.58
43.26 44.53 43.77 43.19 43.81 45.14 41.39 45.58 43.39 42.81 38.49 35.55 38.11 33.11 37.16 42.91 42.67 45.50 47.51 47.89 49.12 50.49 51.46 51.27 52.32 53.62 54.90 55.16 56.46 58.22 60.47 61.19 61.59 62.35 62.25 61.61 61.82 63.81 65.04 66.77 67.97 68.32 71.04 72.28
44.88 48.44 46.63 44.88 46.86 46.11 46.77 42.58 41.49 39.39 36.43 29.63 36.69 35.48 36.55 40.73 42.82 45.02 47.35 49.33 50.24 49.76 50.33 52.58 53.50 53.74 54.65 55.69 58.20 58.57 59.33 59.96 61.01 60.96 61.26 62.27 61.14 61.53 62.51 63.15 64.75 65.99 67.20 67.92
42.80 43.69 46.44 48.02 43.21 45.34 42.60 36.12 28.25 27.09 27.85 28.08 39.32 36.26 38.94 43.67 47.01 48.03 48.33 49.15 50.13 51.35 50.82 51.47 52.05 53.04 53.37 54.23 54.63 56.55 56.41 56.18 57.90 58.78 59.05 60.43 61.61 61.90 62.79 63.99 63.54 63.06 64.07 65.17
37.97 36.86 45.44 48.80 43.62 40.38 40.50 37.34 29.63 23.89 25.74 31.04 40.78 36.17 40.38 49.05 50.71 51.86 52.09 51.15 51.56 50.84 50.43 51.08 51.56 51.62 53.14 54.50 54.74 54.80 54.73 54.36 55.53 55.58 56.57 60.28 60.99 61.04 61.06 61.36 61.20 64.06 64.91 65.56
36.98 39.59 48.45 49.38 49.46 47.01 42.55 36.75 40.90 34.67 35.14 30.13 34.47 39.64 45.23 50.00 50.22 50.28 51.00 51.30 50.56 50.15 50.18 50.51 51.13 51.40 51.38 52.57 54.03 54.66 54.94 55.24 56.32 55.78 57.74 58.39 60.47 60.69 60.68 61.80 61.76 62.70 63.63 64.82
43.67 37.33 46.46 48.53 49.73 48.89 45.25 46.86 37.40 35.50 26.34 25.03 33.52 36.51 38.38 45.15 46.61 49.09 50.05 49.92 50.73 50.47 50.37 49.82 49.59 50.03 50.30 49.91 51.58 52.85 54.20 54.85 55.22 55.33 56.19 57.54 58.50 59.48 59.18 59.41 59.57 59.93 60.25 61.43
43.67 40.47 41.61 44.55 41.92 40.36 42.34 41.55 41.22 38.83 37.09 29.88 28.13 34.87 45.86 45.52 46.85 45.75 47.68 50.23 48.41 48.49 48.31 47.87 48.26 49.32 50.97 51.31 51.79 52.89 52.74 52.80 52.95 54.98 54.95 55.61 56.86 58.04 59.14 57.95 58.72 59.07 59.98 59.89
43.85 39.59 35.98 40.09 44.71 46.06 43.41 41.11 42.12 35.63 32.28 34.29 32.31 34.15 46.40 46.57 47.79 48.52 48.32 50.10 50.41 50.61 50.26 47.86 49.24 49.24 50.61 51.55 52.26 51.68 51.65 51.48 52.40 52.87 52.57 53.18 55.09 56.37 55.94 56.01 56.77 57.46 57.46 55.93
43.33 36.91 31.13 34.06 39.01 43.90 40.17 42.87 40.69 38.44 39.66 36.45 32.56 35.22 47.07 48.38 46.08 47.72 47.24 48.79 50.57 51.02 48.18 48.27 48.68 48.82 49.35 50.38 51.50 51.17 51.54 51.06 51.54 52.25 51.45 51.38 51.68 53.00 55.16 55.71 56.01 56.36 56.16 55.66
45.57 38.34 35.05 29.23 34.90 39.33 37.68 41.44 41.82 39.68 34.72 36.76 36.24 38.44 42.96 46.09 45.05 45.85 46.67 47.09 49.58 50.02 49.94 49.60 48.47 48.01 48.53 49.73 49.89 51.20 50.83 50.85 50.67 51.10 50.32 49.90 50.15 51.67 52.36 54.75 55.89 55.94 56.16 55.66
42.35 33.30 36.34 37.25 39.06 39.51 38.49 38.31 39.54 38.44 38.12 35.11 37.42 39.56 42.55 44.38 44.82 45.24 46.89 47.71 49.59 49.83 47.99 47.25 47.21 46.87 47.75 48.31 49.44 50.54 50.41 50.54 50.27 50.30 49.96 49.49 50.63 51.16 51.40 51.40 54.19 55.26 55.36 55.87
42.96 34.25 35.47 34.05 38.14 38.38 36.84 39.47 39.56 39.67 40.28 40.76 40.76 39.61 46.16 44.61 43.78 45.02 45.23 46.67 46.87 46.43 47.38 48.68 48.80 48.61 48.84 49.33 49.84 50.96 50.73 50.50 50.33 49.74 49.52 50.58 50.48 50.38 50.00 50.42 51.32 53.74 54.47 54.85
39.66 35.98 31.05 28.18 37.47 37.09 33.26 37.73 39.35 40.14 41.31 40.11 35.63 39.17 42.64 42.73 44.73 44.15 44.21 45.55 45.69 46.59 48.33 48.04 47.34 47.83 47.53 47.75 49.33 48.57 49.38 50.42 49.48 48.79 49.73 50.51 49.34 48.99 48.52 49.21 49.43 49.36 52.32 53.78
38.08 36.51 34.59 30.24 33.49 26.37 37.58 45.08 44.79 42.78 42.15 43.84 42.62 42.57 42.53 42.26 45.56 46.14 46.07 44.05 44.91 46.15 46.47 45.93 45.35 45.37 46.51 47.39 47.91 48.66 49.12 48.41 48.72 47.94 48.37 48.63 48.03 47.65 47.62 47.28 47.25 46.97 47.90 50.61
40.72 37.94 32.21 30.18 30.89 35.04 38.40 42.18 41.72 40.43 38.89 43.37 42.57 43.41 43.95 44.70 44.93 43.15 46.31 45.43 43.62 43.28 43.99 44.23 44.83 44.92 45.04 45.59 46.76 47.75 47.85 47.82 47.76 47.60 47.48 48.29 48.38 47.01 45.69 44.59 44.97 46.99 47.30 47.47
40.98 39.62 33.01 31.99 29.44 26.95 38.02 43.11 46.08 43.72 33.97 44.58 44.39 42.05 40.59 40.95 34.60 38.33 43.50 43.55 43.54 44.18 44.26 44.12 44.48 44.72 44.35 45.11 46.98 47.30 47.05 45.07 44.90 45.95 46.54 46.96 46.35 45.78 44.86 43.98 43.91 45.29 46.68 47.06
35.39 34.88 31.07 30.68 29.32 33.45 43.41 45.67 46.95 33.17 33.24 43.45 43.65 40.49 39.76 37.63 39.37 41.53 43.07 43.09 43.61 43.51 43.80 44.34 43.67 43.56 45.08 45.37 44.14 43.25 43.54 43.37 45.61 47.02 46.90 46.35 45.18 44.35 44.11 44.61 44.31 44.30 44.73 45.24
34.00 33.18 32.15 33.12 30.37 29.73 44.87 44.20 38.19 41.75 44.16 43.54 41.73 40.67 40.00 40.59 41.59 41.67 42.13 42.07 42.91 42.82 43.56 44.55 43.48 41.89 42.36 43.01 42.35 41.26 41.16 43.52 44.49 44.61 44.57 44.68 45.39 45.92 46.27 44.77 42.97 42.73 43.14 43.10
34.37 38.28 35.15 34.71 35.30 43.33 46.39 45.65 46.40 44.24 41.56 43.47 42.71 42.05 41.13 39.94 39.76 40.67 41.01 41.10 42.32 43.08 42.97 42.00 40.23 39.82 40.44 40.59 40.33 39.17 40.43 41.55 41.66 40.82 40.60 41.61 43.02 44.35 45.59 43.63 42.30 42.87 43.52 42.19
40.42 43.35 38.70 38.12 42.20 42.91 45.22 43.86 45.04 45.12 44.87 44.89 42.99 41.34 41.07 39.09 39.96 40.37 41.03 41.15 40.10 40.33 39.66 39.82 38.32 37.32 37.57 38.90 39.09 38.90 39.53 40.47 39.77 39.08 39.25 40.20 41.65 41.96 43.58 43.66 43.41 42.78 42.35 41.09
38.73 40.35 38.45 38.29 41.69 43.40 43.78 43.59 44.41 45.51 45.76 43.24 42.82 42.07 40.85 40.00 39.92 39.60 38.62 39.20 39.08 38.01 37.68 37.37 36.31 36.25 35.95 36.66 36.79 37.38 38.31 38.44 38.00 38.61 38.85 39.19 40.00 40.19 40.81 42.06 42.04 41.91 43.01 42.43
40.76 39.17 36.00 34.12 41.00 40.09 40.38 43.53 45.46 42.55 41.33 41.70 40.87 40.52 41.45 40.63 38.87 38.73 37.64 37.72 36.82 35.80 35.91 35.52 36.26 35.53 35.45 35.58 35.77 36.62 37.33 37.19 36.62 36.26 37.77 39.23 39.63 40.03 40.46 40.27 40.75 40.79 40.20 40.10
MSLP
1004.17 1004.55 1004.55 1004.23 1003.83 1003.44 1002.92 1002.58 1002.29 1001.30 1000.56 1000.79 1000.87 1001.05 1001.27 1001.22 1001.20 1001.57 1001.77 1002.40 1002.59 1003.04 1002.90 1002.56 1002.80 1003.32 1003.61 1003.90 1004.28 1004.89 1005.45 1005.95 1006.69 1006.98 1007.24 1007.30 1007.48 1007.59 1007.73 1007.99 1008.07 1008.26 1008.31 1008.61
1004.31 1004.12 1003.51 1003.25 1002.92 1002.73 1002.32 1002.18 1001.86 1001.09 1000.45 1000.53 1000.54 1000.72 1000.64 1000.89 1001.20 1001.46 1001.63 1002.03 1002.24 1002.60 1002.63 1002.71 1002.98 1003.33 1003.57 1004.06 1004.29 1004.67 1005.13 1005.72 1006.10 1007.02 1007.22 1007.36 1007.56 1007.58 1007.35 1007.61 1007.69 1007.30 1007.53 1007.62
1003.72 1002.81 1002.64 1002.30 1001.96 1001.91 1001.75 1001.74 1001.61 1001.65 1000.98 1000.88 1001.26 1001.41 1001.31 1000.96 1000.83 1001.00 1001.18 1001.31 1001.63 1002.04 1002.47 1002.53 1003.02 1003.28 1003.84 1004.42 1004.58 1004.82 1005.12 1005.48 1005.93 1006.48 1007.06 1007.38 1007.55 1007.57 1007.53 1007.57 1007.24 1007.03 1007.11 1007.16
1002.83 1001.99 1001.79 1001.42 1001.41 1001.24 1001.40 1001.30 1001.33 1002.06 1002.32 1002.58 1001.97 1002.39 1001.69 1001.11 1000.89 1000.84 1000.81 1000.98 1001.24 1001.46 1001.76 1002.23 1002.71 1003.26 1003.88 1004.20 1004.38 1004.84 1005.33 1005.84 1005.92 1006.25 1007.15 1007.78 1008.05 1008.04 1007.61 1007.56 1007.00 1007.07 1006.78 1006.47
1002.48 1001.73 1001.47 1000.97 1000.72 1000.85 1001.20 1001.35 1002.01 1002.51 1003.17 1003.15 1002.93 1003.31 1002.29 1001.50 1001.10 1000.63 1000.40 1000.48 1000.51 1000.79 1001.39 1002.02 1002.65 1003.12 1003.98 1004.17 1004.72 1005.31 1005.88 1006.28 1006.47 1006.80 1007.12 1007.54 1007.85 1007.88 1007.78 1007.42 1007.24 1006.89 1006.38 1006.01
1002.47 1001.54 1001.50 1000.88 1000.66 1000.71 1001.13 1001.73 1002.48 1003.12 1003.87 1004.27 1004.00 1003.60 1002.71 1001.64 1000.50 999.96 999.43 999.44 999.79 1000.40 1001.15 1002.05 1002.73 1003.28 1003.99 1004.31 1004.83 1005.46 1005.88 1006.40 1006.77 1007.05 1007.34 1007.67 1007.74 1007.66 1007.57 1007.39 1007.21 1006.78 1006.11 1006.08
1002.63 1001.92 1001.47 1001.22 1001.02 1001.01 1001.72 1002.39 1004.22 1004.91 1005.21 1004.85 1004.24 1003.67 1002.55 1000.66 1000.11 999.65 998.83 998.88 999.84 1000.88 1001.95 1002.65 1003.22 1003.69 1004.00 1004.59 1004.99 1005.41 1005.78 1006.36 1006.61 1006.98 1007.22 1007.42 1007.54 1007.70 1007.77 1007.51 1007.05 1006.57 1006.00 1005.53
1003.22 1002.80 1001.63 1001.18 1001.37 1001.79 1002.15 1003.37 1004.81 1005.56 1006.18 1005.81 1004.68 1003.32 1001.98 1000.82 1000.13 999.28 999.72 999.49 1000.52 1001.92 1002.65 1003.21 1003.77 1004.13 1004.55 1004.95 1005.15 1005.30 1005.67 1006.00 1006.13 1006.38 1006.69 1006.89 1007.07 1007.38 1007.43 1007.26 1007.01 1006.58 1006.06 1005.52
1003.40 1002.91 1002.13 1001.78 1001.75 1002.22 1002.72 1003.25 1004.03 1005.34 1006.24 1006.48 1005.62 1004.10 1002.47 1001.35 1000.58 1001.05 1000.92 1001.16 1002.04 1002.56 1003.15 1003.57 1004.18 1004.49 1004.85 1005.15 1005.42 1005.48 1005.74 1006.04 1006.24 1006.52 1006.75 1006.97 1006.92 1007.05 1007.20 1007.09 1006.91 1006.59 1006.24 1005.69
1003.86 1003.74 1003.12 1002.53 1002.64 1002.74 1003.19 1003.54 1004.46 1005.69 1007.06 1007.24 1006.20 1004.96 1004.00 1003.49 1003.22 1002.86 1002.68 1003.27 1003.44 1003.53 1003.86 1004.21 1004.62 1004.87 1005.09 1005.30 1005.40 1005.41 1005.82 1006.13 1006.41 1006.76 1007.07 1007.12 1007.07 1006.95 1007.01 1006.95 1006.88 1006.52 1006.20 1005.91
1004.60 1005.07 1004.66 1004.12 1004.00 1003.91 1004.13 1004.65 1005.36 1006.36 1007.41 1008.08 1007.41 1005.54 1004.36 1004.45 1004.36 1004.16 1004.74 1004.39 1004.60 1004.69 1004.87 1004.69 1004.83 1004.86 1005.30 1005.66 1005.91 1006.10 1006.16 1006.44 1006.67 1006.70 1006.85 1006.94 1006.90 1006.65 1006.44 1006.72 1006.68 1006.42 1006.18 1006.03
1006.15 1006.22 1006.09 1005.35 1004.77 1004.57 1004.82 1005.29 1006.05 1007.18 1008.00 1007.79 1007.42 1006.08 1005.05 1004.96 1004.85 1004.79 1004.63 1005.19 1005.03 1004.59 1004.60 1004.66 1004.58 1004.84 1005.33 1005.64 1005.90 1006.28 1006.59 1006.69 1006.53 1006.32 1006.46 1006.68 1006.81 1006.79 1006.78 1006.77 1006.39 1006.13 1006.17 1006.08
1007.48 1007.35 1007.54 1006.65 1005.84 1005.20 1005.79 1006.54 1007.63 1008.44 1008.81 1008.33 1008.13 1006.51 1005.31 1005.00 1005.06 1004.99 1005.20 1005.35 1005.28 1005.16 1005.16 1004.78 1004.86 1005.28 1005.39 1005.70 1005.94 1006.00 1006.13 1006.30 1006.44 1006.39 1006.47 1006.57 1006.65 1006.78 1006.76 1006.58 1006.06 1005.95 1005.90 1005.78
1008.57 1008.79 1008.88 1008.61 1007.71 1007.07 1006.95 1006.87 1007.52 1008.65 1009.26 1008.47 1007.79 1006.71 1005.96 1005.31 1005.21 1005.30 1005.25 1005.08 1004.89 1004.94 1005.08 1005.02 1005.08 1005.41 1005.40 1005.49 1005.53 1005.61 1005.73 1005.88 1006.04 1006.12 1006.20 1006.17 1006.13 1006.17 1006.18 1005.95 1005.81 1005.63 1005.49 1005.48
1009.75 1010.02 1009.82 1009.31 1008.73 1007.92 1007.06 1006.79 1007.01 1007.38 1007.73 1008.03 1006.95 1006.22 1005.70 1004.89 1005.02 1004.55 1004.31 1004.64 1004.64 1004.48 1004.66 1004.96 1005.20 1005.29 1005.18 1005.14 1005.04 1005.06 1005.18 1005.44 1005.58 1005.69 1005.89 1005.97 1005.81 1005.67 1005.64 1005.61 1005.36 1005.18 1005.05 1004.81
1010.82 1010.94 1010.63 1010.01 1009.23 1008.13 1006.68 1006.07 1005.91 1005.69 1005.64 1005.60 1005.52 1004.70 1004.51 1004.03 1004.11 1004.23 1004.39 1004.42 1004.52 1004.38 1004.33 1004.32 1004.56 1005.03 1005.29 1005.28 1005.26 1005.29 1005.19 1005.15 1005.19 1005.31 1005.29 1005.35 1005.32 1005.37 1005.36 1005.18 1004.94 1004.69 1004.39 1004.18
1011.42 1011.77 1011.60 1010.58 1009.44 1008.71 1006.54 1004.96 1004.53 1004.45 1004.36 1004.49 1004.76 1004.70 1004.19 1004.48 1004.37 1004.40 1004.54 1004.58 1004.51 1004.62 1004.91 1005.17 1005.30 1005.46 1005.33 1005.30 1005.18 1005.11 1004.82 1004.70 1004.77 1004.81 1004.67 1004.66 1004.79 1004.68 1004.76 1004.67 1004.65 1004.24 1003.92 1003.41
1011.41 1011.96 1012.40 1011.52 1010.37 1008.40 1005.36 1003.76 1003.65 1003.47 1004.80 1004.81 1004.77 1004.90 1005.24 1005.38 1005.12 1005.05 1005.19 1005.51 1005.41 1005.44 1005.32 1005.20 1005.33 1005.30 1005.25 1005.25 1005.09 1004.88 1004.79 1004.53 1004.31 1004.15 1003.96 1003.86 1003.91 1003.89 1003.86 1003.79 1003.97 1003.95 1003.56 1003.20
1010.83 1012.06 1012.31 1011.96 1010.07 1007.73 1005.46 1004.52 1004.51 1004.65 1005.72 1005.63 1005.73 1005.80 1005.78 1005.82 1005.72 1005.92 1005.68 1005.94 1005.90 1005.68 1005.55 1005.39 1005.18 1005.07 1004.93 1004.83 1004.50 1004.36 1004.21 1003.80 1003.59 1003.48 1003.18 1002.98 1002.91 1002.98 1003.13 1003.28 1003.31 1003.29 1002.96 1002.74
1010.55 1011.68 1012.46 1011.92 1010.53 1008.50 1006.79 1006.39 1005.53 1005.40 1006.02 1006.16 1006.26 1006.41 1006.46 1006.37 1006.68 1006.40 1006.16 1006.22 1005.99 1005.72 1005.53 1005.39 1005.28 1005.16 1004.94 1004.59 1004.06 1003.85 1003.65 1003.57 1003.30 1002.93 1002.62 1002.40 1002.23 1002.11 1002.11 1002.32 1002.51 1002.34 1002.18 1001.98
1010.63 1011.33 1011.57 1011.50 1010.72 1008.93 1007.44 1006.57 1006.56 1006.57 1007.30 1006.66 1006.55 1006.52 1006.63 1006.93 1007.15 1006.71 1006.19 1006.03 1005.89 1005.70 1005.43 1005.31 1005.19 1004.94 1004.53 1004.61 1004.72 1004.42 1004.13 1003.81 1003.38 1003.07 1002.66 1002.26 1001.88 1001.63 1001.58 1001.47 1001.45 1001.47 1001.42 1001.24
1010.29 1010.62 1010.73 1010.67 1010.25 1009.16 1008.04 1007.69 1007.96 1007.70 1006.83 1006.64 1006.52 1006.58 1006.81 1006.89 1006.87 1006.76 1006.50 1006.19 1006.00 1005.86 1005.53 1005.26 1005.13 1005.42 1005.27 1005.23 1005.04 1004.71 1004.20 1003.73 1003.20 1002.83 1002.39 1002.03 1001.69 1001.36 1000.91 1000.66 1000.54 1000.60 1000.52 1000.43
1010.01 1010.20 1010.23 1010.54 1009.38 1008.47 1008.08 1008.44 1008.53 1007.96 1007.52 1007.22 1007.10 1007.07 1007.12 1007.14 1007.11 1006.96 1006.71 1006.47 1006.19 1005.77 1005.61 1005.96 1006.02 1005.81 1005.57 1005.17 1005.04 1004.32 1003.55 1003.14 1002.60 1002.12 1001.63 1001.27 1000.86 1000.39 1000.02 999.87 999.89 999.84 999.71 999.60
1009.38 1009.07 1009.65 1009.31 1008.66 1008.26 1008.57 1008.48 1008.34 1008.05 1007.75 1007.61 1007.30 1007.22 1007.31 1007.59 1007.34 1007.09 1006.81 1006.58 1006.52 1006.64 1006.64 1006.54 1006.32 1005.88 1005.26 1004.83 1004.51 1003.95 1003.11 1002.52 1002.01 1001.32 1000.90 1000.56 1000.06 999.70 999.39 999.29 999.14 998.94 998.79 998.67
1009.06 1008.42 1008.47 1008.44 1008.45 1008.38 1008.93 1008.99 1008.78 1008.26 1007.75 1007.66 1007.77 1007.77 1007.66 1007.55 1007.47 1007.41 1007.40 1007.48 1007.47 1007.37 1007.01 1006.65 1006.14 1005.45 1004.91 1004.58 1003.99 1003.48 1002.83 1002.19 1001.35 1000.66 1000.15 999.74 999.26 998.88 998.65 998.31 998.20 998.12 997.85 997.80
1008.48 1008.76 1008.76 1008.76 1008.64 1008.60 1008.60 1008.26 1007.98 1008.09 1008.35 1008.18 1008.01 1007.80 1007.71 1007.86 1007.93 1008.19 1008.31 1008.22 1007.95 1007.45 1006.91 1006.35 1005.82 1005.32 1004.71 1004.20 1003.53 1002.94 1002.44 1001.80 1000.98 1000.26 999.71 998.99 998.28 997.78 997.77 997.84 997.53 997.31 997.16 997.13
Wind_Speed
8 3 7 11 12 13 12 8 13 12 17 12 16 12 12 11 7 5 8 9 8 9 9 9 8 7 8 8 8 8 6 2 3 2 3 3 7 3 3 4 6 7 10 14
4 8 13 15 16 15 15 12 11 9 5 3 2 8 8 7 6 7 11 11 11 9 7 6 8 8 8 9 8 6 5 4 2 3 2 3 3 4 5 4 8 11 10 14
9 13 16 15 14 14 11 9 4 5 10 7 5 4 4 5 3 7 8 9 9 12 10 8 8 9 9 8 9 8 8 5 3 2 2 3 2 3 2 4 7 11 12 13
8 12 15 15 11 6 5 8 4 6 8 4 2 6 6 5 11 11 12 10 11 11 8 7 8 7 10 9 8 7 8 7 4 3 4 2 2 3 3 4 5 6 11 16
14 9 8 9 6 7 7 8 7 8 6 5 9 2 7 7 7 15 17 11 12 13 11 11 10 8 8 9 8 8 9 9 6 5 3 2 3 2 3 4 7 6 6 14
12 13 7 7 8 5 7 5 5 5 1 2 5 3 7 11 9 8 7 18 14 11 8 11 10 10 9 9 9 9 10 8 6 4 3 3 5 7 5 5 6 6 6 6
8 13 13 13 5 8 7 3 4 6 5 5 9 6 15 9 12 17 21 8 11 15 11 10 10 9 8 9 9 8 9 5 6 5 2 1 2 4 6 7 6 9 9 8
3 7 5 5 3 7 8 5 6 7 5 5 7 6 9 6 6 14 13 16 18 14 10 10 9 9 9 8 7 6 4 2 1 0 2 3 4 3 4 6 6 7 7 8
5 12 9 13 10 6 7 6 7 1 2 1 4 7 5 8 8 8 9 12 12 10 9 9 10 9 8 6 5 6 4 3 3 4 3 5 4 2 2 4 4 4 8 10
4 4 7 3 6 7 6 5 5 4 1 5 5 6 1 8 12 14 14 12 8 8 9 9 8 8 5 4 2 1 7 8 7 7 5 4 5 4 4 4 6 7 7 6
2 5 6 6 3 4 5 3 4 6 8 5 1 4 6 6 7 6 11 10 6 8 7 6 5 5 8 8 8 7 6 5 4 4 3 3 4 4 3 4 5 7 7 7
1 2 3 6 8 9 9 9 5 3 8 3 5 10 8 8 9 9 8 10 10 3 5 3 4 4 6 7 6 5 3 4 2 1 2 2 3 3 3 5 6 6 7 7
6 3 3 7 6 7 4 4 4 3 3 9 8 5 3 6 7 6 4 4 4 7 9 7 4 5 4 4 2 1 1 2 2 2 2 3 4 3 5 6 6 6 7 7
5 2 3 5 8 12 8 7 5 4 3 4 9 10 6 2 3 3 6 7 5 5 7 1 4 2 3 4 6 6 5 3 4 3 4 4 4 5 5 7 7 7 8 8
4 4 5 8 13 17 18 18 14 13 14 10 9 11 15 6 12 12 11 8 8 8 4 2 3 5 7 8 7 6 5 5 4 5 5 6 6 6 7 7 7 9 10 11
4 3 6 8 14 18 21 17 17 18 15 20 18 20 13 5 6 4 4 4 5 3 4 7 7 5 7 3 2 3 4 5 4 5 5 6 5 6 7 8 8 9 11 11
4 2 3 4 9 13 9 14 15 14 8 8 11 4 8 5 7 5 6 5 4 5 6 7 4 3 4 5 5 6 7 4 5 6 6 5 5 5 6 6 7 7 9 10
4 2 2 4 6 6 6 6 8 2 14 12 9 10 8 7 9 7 6 8 8 8 8 7 5 5 6 5 7 6 6 7 7 8 7 7 7 7 7 7 8 10 9 9
9 4 2 2 3 10 11 4 4 4 5 7 8 5 5 7 12 2 9 7 6 6 6 5 4 4 6 7 8 10 8 8 7 7 7 7 6 6 5 6 8 11 11 9
9 9 4 2 5 3 0 5 12 5 2 7 7 6 5 5 1 5 6 2 6 7 6 7 7 6 7 8 10 12 10 6 7 7 8 7 7 7 8 8 10 11 11 13
5 4 9 6 4 7 8 4 10 4 3 3 4 3 5 2 3 5 8 8 7 7 8 7 7 8 11 8 7 7 7 7 7 9 9 9 7 7 8 10 9 10 12 14
3 3 3 4 5 5 8 5 4 5 3 4 3 4 4 5 7 6 8 10 9 8 10 13 10 9 8 8 9 10 11 10 12 12 14 15 15 13 13 16 9 9 11 13
2 2 2 4 3 6 3 2 5 5 6 6 6 6 6 7 6 8 8 8 11 14 10 10 9 11 11 12 10 14 15 14 15 14 15 15 16 17 12 11 11 12 13 11
4 4 3 3 2 7 6 5 6 9 11 7 7 6 7 7 9 10 10 10 8 11 11 12 14 16 17 14 15 15 16 16 16 16 15 14 14 13 11 9 10 11 11 10
6 4 2 5 7 5 10 7 7 11 5 6 8 7 8 8 10 8 9 9 10 11 13 15 17 15 16 17 16 16 17 16 17 16 15 14 12 12 12 11 9 10 13 12
1 3 1 1 2 2 4 4 4 5 8 8 8 8 8 9 10 10 8 9 12 15 16 16 16 16 17 17 17 16 15 16 16 15 12 11 10 9 8 9 10 12 15 16
Wind_Direction
208 172 225 237 240 245 255 262 222 237 242 221 220 199 205 218 234 156 152 172 198 227 240 216 218 134 118 107 104 106 81 93 135 154 163 189 213 211 197 216 219 201 194 203
258 229 238 224 233 236 251 262 276 282 313 336 290 205 195 203 218 185 192 197 198 207 225 198 158 152 142 143 132 114 108 96 58 142 207 204 206 228 215 218 223 225 195 200
210 237 232 249 250 249 242 240 293 311 314 318 339 286 221 237 227 272 211 207 192 189 204 207 174 165 149 144 146 154 169 151 135 96 25 317 289 309 279 239 231 233 224 209
242 251 256 248 240 264 295 306 280 295 304 263 7 271 269 226 242 241 245 205 193 188 188 191 188 141 148 158 143 136 134 143 141 45 53 67 284 279 258 246 249 244 231 233
264 281 289 300 246 233 247 287 267 247 245 265 300 7 266 297 261 241 235 219 197 183 175 172 173 121 107 94 92 84 89 86 79 73 57 358 315 234 278 311 312 302 273 251
270 295 300 283 321 290 288 266 299 294 185 336 232 232 278 258 260 277 221 216 192 176 148 108 117 105 102 93 90 82 82 78 74 77 41 319 290 300 314 298 298 287 289 260
294 286 288 299 314 330 358 99 333 331 330 219 245 255 240 277 255 265 257 198 110 101 98 97 96 97 96 98 103 110 102 106 110 94 47 309 314 318 301 292 291 293 293 289
226 293 302 333 238 212 270 161 165 223 230 260 339 259 239 286 333 70 53 85 89 88 89 90 91 93 92 96 88 82 99 99 98 232 308 243 225 226 259 264 279 289 290 296
217 236 297 302 292 313 313 290 226 51 315 22 269 311 328 23 4 51 82 99 96 95 93 95 75 68 53 53 111 129 114 36 280 246 272 308 274 267 288 327 318 309 316 307
0 335 270 45 17 312 291 292 322 353 330 287 229 261 205 34 33 33 64 56 52 74 76 64 64 63 49 35 360 65 89 87 93 83 68 50 28 36 13 354 328 318 310 319
210 147 286 1 190 258 324 318 287 178 148 180 304 252 144 84 62 35 64 21 50 28 41 67 63 58 55 58 47 56 73 74 79 91 97 22 323 314 359 343 317 311 312 316
48 63 265 271 305 303 273 266 239 173 290 253 187 240 109 100 72 37 17 16 354 4 314 39 30 88 81 79 61 61 48 352 292 64 65 349 352 339 323 311 321 335 328 326
340 323 347 317 283 285 63 34 48 43 215 226 244 242 92 65 47 39 22 319 335 324 331 330 34 83 84 90 75 307 305 296 319 1 19 4 331 297 269 277 282 296 299 302
10 312 208 219 283 305 292 278 281 119 270 351 261 284 246 237 181 240 274 276 254 265 290 217 48 9 294 257 222 205 218 238 275 301 275 258 274 285 286 277 278 273 277 285
28 255 270 285 295 289 282 280 266 206 216 224 246 257 282 285 202 201 203 234 249 254 182 207 243 264 255 249 251 216 218 230 236 265 274 273 265 261 268 278 267 263 270 276
358 293 326 294 280 275 274 264 260 256 241 236 241 249 241 232 50 96 160 183 236 292 257 250 264 316 310 344 331 286 254 237 250 271 271 265 269 265 265 263 254 246 250 253
171 237 1 265 317 344 301 249 251 259 246 252 256 289 15 75 74 21 351 342 309 307 43 42 22 322 327 299 270 254 236 201 226 244 257 266 300 307 306 302 307 293 267 252
166 166 151 275 286 249 267 349 34 89 44 11 51 52 47 26 17 347 9 39 23 6 356 343 340 344 333 330 323 308 273 247 234 234 234 226 236 255 272 289 292 296 308 303
193 177 205 253 259 294 305 358 44 39 59 29 65 70 62 19 350 208 44 12 346 335 324 302 298 287 292 294 288 285 273 251 243 243 239 235 230 246 253 262 274 283 290 290
169 161 171 225 274 278 141 349 339 28 139 17 12 354 19 27 348 286 340 296 299 304 301 300 310 300 297 282 273 275 275 294 273 263 259 253 239 234 240 246 262 276 282 281
152 182 211 219 234 280 0 42 326 226 207 297 280 7 22 7 239 273 327 332 323 305 304 320 315 297 299 354 18 355 334 315 311 319 308 292 270 259 266 267 258 261 267 275
191 182 211 196 212 222 360 32 28 304 254 285 325 18 6 329 328 330 323 319 317 327 320 307 337 6 349 359 355 320 301 295 295 295 290 285 280 276 275 263 258 263 268 267
262 199 248 196 286 212 239 341 349 352 26 359 15 11 8 341 330 327 321 316 314 305 333 11 356 332 329 319 311 296 296 296 294 290 286 287 283 274 262 260 259 263 255 256
249 171 202 224 307 291 86 39 12 340 339 342 354 349 7 349 330 320 310 312 347 7 353 340 326 314 306 312 311 299 299 298 292 285 283 282 279 276 266 258 258 256 253 252
268 202 281 270 39 60 37 358 298 291 310 1 18 3 343 321 310 335 339 3 349 337 324 320 313 306 307 306 300 299 298 296 288 284 281 276 269 267 264 254 254 256 253 247
33 5 202 220 96 157 274 253 294 13 29 14 353 329 329 353 349 15 359 340 328 318 314 310 308 309 303 302 299 299 300 297 295 292 289 284 274 263 251 255 261 247 250 255